GMMEGMMN

Guest
Details From GMME - SALE
To GMMN - Casablanca Mohammed V Intl
Flight Number -
Tags decoded
Created
Modified
Stats Distance 61 nm / 112 km
Max Altitude 0 ft / 0 m
Waypoints 3
Social Downloads 0
Likes 0
Share VATSIM

Download

Looking for another format? Having issues loading an existing format? Contact us
Advertisement - Login to hide

Notes

Requested: GMME AK NUA GMMN

Route

GMME NUA GMMN

ID Type Via Altitude Latitude Longitude Leg Dist Tot Dist Heading (true) Name
O GMME APT - 0 ft / 0 m 34.05147˚ -6.75152˚ - 0 nm - SALE
NUA NDB - 0 ft / 0 m 33.43000˚ -7.61000˚ 56 nm 56 nm 229° / 229° Casablanca NDB
O GMMN APT - 0 ft / 0 m 33.36747˚ -7.58996˚ 3 nm 60 nm 165° / 165° Casablanca Mohammed V Intl

Altitude Profile

Advertisement - Login to hide

GMME

Details ICAO GMME (RBA)
Name SALE
Region Morocco
Timezone Africa/Casablanca (UTC+0.0)
Stats Elevation 276 ft / 84 m (AMSL)
Location 34.051468° -6.751519°
Runways 1
Magnetic Variation 1.551° W

METAR

GMME 130930Z VRB02KT 8000 NSC 10/06 Q1026 NOSIG

Decode

TAF

TAF GMME 130500Z 1306/1412 06012KT 8000 SCT013 SCT016 BECMG 1318/1320 14010KT TEMPO 1400/1406 VRB02KT 4000 BR BECMG 1408/1410 36010KT

Decode

Departure Runways

ID Width Length Bearing (true) Bearing (mag) Surface Threshold Offset Overrun Length
04 148 ft / 45 m 11,503 ft / 3,506 m 31.24° 32.79° Asphalt 0 ft / 0 m 197 ft / 60 m
22 148 ft / 45 m 11,503 ft / 3,506 m 211.25° 212.80° Asphalt 0 ft / 0 m 197 ft / 60 m

GMMN

Details ICAO GMMN (CMN)
Name Casablanca Mohammed V Intl
Region Morocco
Timezone Africa/Casablanca (UTC+0.0)
Stats Elevation 656 ft / 200 m (AMSL)
Location 33.367466° -7.589964°
Runways 2
Magnetic Variation 1.817° W

METAR

GMMN 130930Z 10004KT CAVOK 08/04 Q1026 NOSIG

Decode

TAF

TAF GMMN 130500Z 1306/1412 00000KT CAVOK BECMG 1310/1312 02012KT 9999 FEW020 BECMG 1315/1317 08010KT BECMG 1322/1324 VRB02KT BECMG 1410/1412 02011KT

Decode

Destination Runways

ID Width Length Bearing (true) Bearing (mag) Surface Threshold Offset Overrun Length
17L 148 ft / 45 m 12,224 ft / 3,726 m 164.03° 165.85° Asphalt 0 ft / 0 m 295 ft / 90 m
17R 148 ft / 45 m 12,196 ft / 3,717 m 164.03° 165.85° Asphalt 0 ft / 0 m 197 ft / 60 m
35L 148 ft / 45 m 12,196 ft / 3,717 m 344.04° 345.86° Asphalt 0 ft / 0 m 180 ft / 55 m
35R 148 ft / 45 m 12,224 ft / 3,726 m 344.04° 345.86° Asphalt 0 ft / 0 m 995 ft / 303 m

Approach Navaids

Runway Type Ident Frequency Range Bearing (true) Bearing (mag) Slope Elevation
35L Localiser INL 110.70 MHz 18 nm / 33 km 344.03° 345.85° - 656 ft / 200 m (AMSL)
35L Glidescope INL 110.70 MHz 10 nm / 19 km 344.03° 345.85° 3.00° 656 ft / 200 m (AMSL)
35L DME INL 110.70 MHz 18 nm / 33 km - - - 656 ft / 200 m (AMSL)
35R Localiser INR 109.90 MHz 18 nm / 33 km 344.04° 345.86° - 656 ft / 200 m (AMSL)
35R Glidescope INR 109.90 MHz 10 nm / 19 km 344.04° 345.86° 2.70° 656 ft / 200 m (AMSL)

Popular Alternatives